Theta_e
315 313 313 315 321 328 332 338 345 340 345 345 349 346 344 343 344 344 343 343 342 340 340 339 340 341 341 341 340 339 340 338 340 338 339 341 342 341 340 343 343 343 342 341
313 313 313 314 317 320 321 322 322 342 345 345 350 351 345 343 342 343 343 344 343 343 341 340 340 341 342 342 341 341 340 339 342 339 339 339 341 341 343 343 343 343 342 342
315 316 314 315 315 317 317 319 323 331 351 348 347 344 346 343 342 340 342 343 343 342 341 341 341 341 342 342 342 342 342 340 341 340 340 340 341 343 343 343 343 343 341 342
317 317 319 316 316 315 318 316 318 347 350 348 345 343 335 340 344 339 338 340 342 343 341 341 341 341 342 341 342 343 343 342 342 342 342 342 341 343 342 343 341 343 342 342
319 321 320 317 317 315 318 320 331 352 339 338 341 345 340 342 345 343 340 339 339 343 342 342 342 342 341 341 342 343 344 343 342 344 342 342 341 342 342 341 341 343 342 344
318 320 319 318 319 317 319 323 320 323 331 340 330 344 338 334 342 343 343 341 339 343 343 342 343 342 342 341 342 343 344 344 342 343 342 340 341 341 342 341 343 343 343 344
320 320 320 321 321 319 317 318 325 339 341 344 325 338 337 328 335 339 340 342 340 339 343 342 342 342 342 341 342 343 343 344 343 344 341 340 341 342 341 341 343 343 343 341
319 321 320 320 321 320 319 318 318 324 321 323 323 329 328 336 341 346 346 345 341 340 342 343 342 341 341 341 341 342 343 343 344 343 343 341 342 343 342 342 343 342 342 341
317 321 321 320 319 319 319 318 316 316 316 320 322 336 334 335 339 343 345 345 343 342 341 344 342 342 341 341 341 341 343 343 344 344 344 342 342 344 342 344 343 343 342 343
318 324 322 321 319 318 318 317 321 317 321 324 329 341 337 340 340 337 339 344 345 344 344 344 343 343 343 341 341 341 342 343 344 344 343 344 343 343 342 342 343 344 343 344
317 320 322 320 320 318 318 320 318 319 322 328 335 337 332 336 336 338 340 343 346 344 345 345 344 344 343 343 342 342 340 342 344 344 343 343 342 342 343 343 343 343 343 344
318 316 320 322 319 317 319 319 317 318 321 322 325 327 328 332 333 337 341 342 346 344 346 346 346 345 344 343 342 343 342 341 344 343 343 343 343 343 343 344 343 343 343 344
317 316 320 321 316 317 317 319 317 315 318 326 328 327 328 332 335 338 340 341 344 346 344 344 345 344 344 343 343 343 343 343 344 345 344 343 341 342 344 343 344 343 343 344
319 313 319 321 319 316 318 321 319 319 323 323 325 327 333 336 337 338 340 341 340 344 345 346 345 345 344 344 344 344 344 344 344 344 343 344 342 343 344 342 343 342 343 344
314 317 318 318 317 317 320 322 320 320 318 321 320 326 330 330 336 340 341 342 341 342 341 342 342 342 342 343 344 345 345 344 344 344 343 344 342 343 343 344 344 344 342 342
310 314 316 318 317 320 323 325 323 320 319 326 324 328 326 329 333 339 343 342 343 342 342 343 342 341 341 342 343 344 345 348 347 346 346 346 345 345 342 340 344 344 344 343
313 312 313 317 321 321 323 322 325 326 324 323 325 323 330 332 331 331 335 339 341 342 342 341 341 340 339 340 340 340 341 342 344 345 347 349 349 347 345 345 343 344 345 345
314 314 314 320 319 324 319 319 323 324 326 327 323 324 327 330 332 332 332 333 335 336 338 339 339 339 336 333 332 332 332 332 334 337 342 344 346 346 346 346 343 340 345 346
314 314 314 318 317 318 324 326 323 325 324 328 327 326 332 334 334 334 334 333 334 334 337 336 335 334 332 331 334 334 335 336 337 338 339 337 342 344 345 346 346 342 345 345
315 313 317 314 318 320 318 320 323 322 325 325 328 328 334 335 333 327 328 334 335 336 336 336 333 331 331 334 335 334 335 334 335 335 335 337 339 343 345 345 345 340 343 345
318 317 318 319 318 318 316 323 326 326 322 323 329 330 333 332 330 330 330 334 334 334 332 332 335 332 334 333 335 334 335 334 333 334 335 336 337 342 341 343 346 344 345 342
319 318 318 317 320 322 324 327 327 324 325 327 330 330 330 332 333 333 333 332 331 330 331 332 334 333 333 333 333 336 333 331 333 333 334 340 339 341 341 341 342 344 343 341
322 318 319 319 320 319 327 327 328 329 330 330 330 331 329 329 331 332 331 332 332 330 329 330 334 333 333 334 336 338 334 330 332 332 332 335 339 340 341 339 340 340 340 340
327 321 324 325 326 327 328 328 330 330 330 330 330 329 328 329 331 331 330 330 330 330 329 330 330 332 332 333 335 334 329 331 331 330 332 331 332 335 337 338 338 339 340 342
325 324 325 327 329 330 329 329 330 331 331 329 328 328 327 330 330 330 330 330 330 330 330 331 332 332 332 332 336 331 329 328 331 332 330 331 333 332 330 331 332 331 332 332
324 323 326 326 328 327 328 329 330 331 330 327 328 328 330 331 330 330 330 329 329 327 330 331 332 333 332 332 333 335 330 329 328 331 332 328 330 332 333 332 331 331 331 330
Wind_Speed
3 3 5 8 3 3 4 3 5 3 8 6 7 3 7 15 16 17 23 29 29 30 27 29 26 26 26 22 24 23 23 23 21 21 25 22 20 18 17 13 12 9 12 10
5 5 7 4 3 3 2 2 5 3 6 4 3 8 7 12 17 28 28 29 26 28 29 30 32 31 30 26 25 26 25 25 23 21 22 18 15 19 16 14 13 11 15 14
6 5 7 5 4 4 3 5 4 4 4 3 2 7 5 6 11 21 30 28 26 29 33 31 31 32 32 30 28 28 25 26 25 23 23 21 16 17 20 16 14 14 12 12
5 5 5 5 5 7 3 8 6 7 6 3 3 4 5 3 8 10 20 31 27 27 33 33 30 32 34 31 30 29 28 25 27 25 26 24 20 18 19 16 15 15 13 12
7 3 4 4 7 8 9 1 5 4 5 5 1 2 6 1 4 8 16 27 32 30 35 37 34 33 33 32 31 31 29 26 26 26 26 25 24 19 15 13 17 14 17 15
6 3 6 8 3 8 5 5 9 6 3 2 4 5 6 2 3 3 8 26 34 34 31 34 34 32 34 33 34 33 32 28 28 27 27 25 24 22 21 17 14 18 17 17
3 5 3 4 4 4 5 5 4 3 2 5 2 4 8 5 4 6 12 19 33 37 35 31 36 38 38 37 28 38 33 32 30 29 28 27 26 25 22 20 17 19 18 19
5 5 6 4 6 7 4 6 6 5 4 4 4 5 4 3 4 5 3 1 20 32 35 33 32 35 38 39 38 37 36 32 32 31 31 29 28 26 25 21 20 19 19 18
5 5 4 4 4 8 4 2 4 8 4 3 3 6 6 5 3 5 8 8 14 20 31 31 32 35 38 42 40 38 38 36 34 32 33 33 29 29 27 24 21 22 19 18
6 1 1 2 6 7 5 7 4 3 4 3 3 4 4 3 4 5 6 7 3 13 20 27 29 33 34 39 40 38 30 36 39 37 34 35 33 31 29 27 27 23 21 21
6 3 3 1 2 8 2 1 6 5 4 5 3 5 6 7 4 1 2 4 3 9 15 21 24 28 34 35 40 38 25 33 38 40 36 33 33 33 32 31 28 29 24 22
6 5 3 0 4 2 4 5 5 5 4 1 3 5 3 6 5 3 3 3 3 2 12 14 15 20 26 32 36 40 40 30 24 31 40 33 34 35 34 35 33 30 29 25
9 1 3 5 6 3 6 3 5 5 4 6 6 5 1 3 3 5 3 2 1 4 8 11 13 17 21 25 30 38 44 44 36 30 37 40 35 37 36 38 37 35 31 30
8 4 7 7 7 4 5 3 4 5 4 5 6 4 5 5 7 8 9 5 4 5 7 8 9 10 12 16 22 28 34 35 39 34 25 40 41 36 36 36 39 38 37 34
4 5 3 2 4 3 4 5 7 6 5 5 5 8 7 7 7 10 10 8 7 7 6 6 7 8 9 11 12 14 20 29 32 33 37 42 39 32 38 36 36 37 38 38
3 2 3 2 1 3 3 2 6 4 4 2 5 5 4 6 8 11 11 9 9 8 7 7 7 8 9 10 11 11 14 16 24 32 35 35 43 38 37 40 38 39 38 37
4 7 4 2 2 3 3 6 4 3 3 7 5 7 3 4 9 10 10 11 11 10 10 10 10 9 6 5 8 11 13 15 19 24 30 34 38 41 48 45 39 42 40 39
7 5 3 4 2 2 6 4 4 4 3 3 2 4 6 8 9 11 12 14 13 11 11 11 12 11 7 5 6 8 11 14 17 21 26 27 33 37 39 44 41 40 39 39
2 6 4 5 4 4 1 4 6 6 7 5 5 6 5 3 1 12 13 14 13 12 12 13 13 11 8 6 3 5 7 11 14 18 23 28 29 32 37 45 46 37 37 35
5 6 5 3 5 6 8 4 5 5 3 12 12 9 8 9 1 5 5 12 13 11 10 11 13 8 7 5 3 5 7 12 18 22 23 24 30 34 34 36 37 37 37 39
4 3 6 3 3 6 6 5 7 5 7 12 23 13 11 6 6 5 3 7 8 7 6 9 9 8 7 6 5 6 13 18 20 24 28 30 31 35 36 34 45 39 36 34
7 7 4 4 4 4 13 7 8 7 5 14 17 13 10 10 7 3 3 5 5 5 6 8 8 10 8 6 5 6 10 15 18 20 23 15 12 28 27 27 31 35 33 32
2 6 7 7 7 4 31 5 15 4 3 4 9 9 10 9 6 5 7 7 6 7 8 8 9 9 9 7 4 1 7 10 14 23 20 8 14 19 20 17 14 24 30 35
1 4 5 5 3 3 16 9 5 7 7 3 5 6 6 4 6 6 5 4 4 6 7 6 6 4 5 6 7 4 6 8 15 20 24 22 4 13 19 19 14 25 28 31
2 4 7 0 2 1 8 14 6 7 7 5 5 4 8 11 12 9 7 6 6 4 3 5 5 4 5 10 13 12 8 6 11 16 19 22 25 26 21 20 17 18 26 30
2 5 4 4 14 7 8 17 11 10 9 5 6 10 12 15 16 12 11 7 6 8 8 6 4 5 5 9 13 14 11 13 11 14 15 18 20 23 27 29 33 32 36 31
Wind_Direction
50 95 198 214 169 175 155 199 236 248 175 145 219 189 211 203 203 202 202 206 207 222 235 231 228 219 213 209 201 201 199 191 194 188 193 203 211 211 214 217 211 230 229 237
25 247 219 144 177 207 196 279 263 291 145 142 182 246 197 195 211 208 208 215 219 223 223 227 225 220 212 209 207 206 204 201 198 196 195 197 206 217 217 220 223 229 230 235
163 232 103 150 170 191 214 198 229 200 119 15 52 309 177 214 227 211 213 214 218 214 217 218 218 219 212 210 209 209 209 205 204 205 203 207 215 216 217 221 229 229 230 228
226 255 223 173 196 160 237 204 228 167 140 187 120 273 298 211 216 204 206 217 214 210 214 215 216 215 215 217 213 213 213 212 208 207 211 216 220 212 215 222 225 218 226 225
242 211 204 209 205 169 228 147 190 124 103 105 345 65 268 167 245 229 215 214 217 211 208 213 215 219 220 220 218 217 213 215 215 215 220 224 220 221 222 230 215 222 223 233
236 244 175 212 175 182 127 85 50 55 70 359 221 150 287 260 205 290 230 216 216 209 210 213 221 228 225 224 224 222 219 218 218 222 226 227 221 225 227 226 224 223 230 235
312 241 247 179 99 73 83 64 30 27 24 213 14 95 246 296 271 239 257 236 215 211 210 208 214 222 224 216 225 226 224 223 222 225 226 225 224 231 233 232 230 230 232 233
172 313 173 188 169 170 160 154 148 176 182 233 83 223 247 244 318 14 20 215 201 211 215 213 218 220 223 224 223 228 225 227 226 229 229 231 232 236 235 234 229 226 232 230
151 266 286 204 151 138 174 153 168 101 11 70 253 290 319 356 16 57 85 119 178 204 214 221 220 223 223 226 224 232 230 230 232 233 233 233 237 238 236 230 233 225 225 227
205 177 200 290 101 41 142 152 81 14 132 202 293 278 234 296 332 48 19 61 178 210 212 218 222 224 226 227 230 230 241 245 238 236 238 237 240 239 237 238 238 231 228 225
148 124 277 144 150 163 83 53 52 110 110 153 168 255 215 207 218 30 111 50 22 209 209 212 222 229 233 226 227 226 247 244 241 244 243 244 245 244 243 241 242 237 235 229
188 145 141 132 322 270 123 144 132 125 223 77 150 264 217 222 261 273 98 64 70 121 193 202 217 222 224 227 229 226 228 235 238 251 246 243 246 245 248 247 245 243 238 238
187 359 65 9 359 358 92 111 103 104 93 189 141 258 320 251 242 239 245 236 156 141 174 202 207 220 227 228 228 225 226 234 242 238 241 243 256 253 249 253 252 245 244 244
119 113 152 183 200 156 129 140 121 123 121 170 217 233 218 203 200 216 223 203 207 196 188 196 210 216 223 230 239 241 242 242 242 243 238 237 244 264 259 253 253 252 246 246
114 118 132 94 122 137 144 166 172 178 169 153 234 201 235 206 187 206 215 220 211 203 188 188 196 209 224 233 245 251 249 245 241 237 237 239 248 242 249 251 255 257 251 248
6 140 134 91 195 177 198 183 194 170 141 105 132 244 203 202 198 203 214 226 228 235 223 224 226 222 227 234 242 244 242 242 244 243 245 248 248 242 239 251 250 251 253 248
101 131 91 218 17 115 342 210 200 158 170 148 163 223 162 223 239 234 218 227 232 237 238 239 236 237 240 247 248 256 261 256 249 248 248 248 241 237 243 245 245 238 244 248
121 95 85 154 83 196 238 295 224 153 170 204 198 206 210 230 251 266 253 243 242 237 240 236 232 228 220 247 276 280 283 283 277 267 256 253 257 253 249 239 238 248 240 244
80 126 94 134 170 282 315 185 145 166 243 203 214 234 223 194 289 272 250 243 241 244 243 237 234 232 245 260 293 327 324 318 310 299 277 266 255 258 254 248 243 244 234 240
72 63 112 138 133 188 232 231 154 98 274 218 200 208 167 149 149 254 315 231 236 241 240 245 246 235 234 230 247 324 332 327 318 306 293 280 254 244 253 249 244 243 234 235
108 26 126 128 146 282 242 164 130 121 236 201 203 206 172 192 218 296 301 207 213 217 229 254 241 219 212 237 261 306 328 328 323 311 302 298 258 234 235 240 234 228 225 230
158 135 152 98 94 248 156 120 160 209 193 199 202 217 222 230 244 242 206 209 216 242 252 253 246 211 220 239 256 321 340 352 345 337 328 322 244 225 229 236 237 221 223 232
155 167 166 169 202 231 172 183 193 165 175 203 225 230 243 253 246 230 226 215 232 256 253 253 239 232 234 237 211 271 358 5 7 36 24 346 224 225 222 213 211 220 231 231
74 141 107 113 216 192 198 195 179 217 223 219 206 233 234 210 177 189 192 218 231 239 231 218 216 227 242 208 173 138 62 69 48 52 50 58 81 177 174 195 207 207 209 208
207 133 130 359 306 314 235 210 185 152 165 165 190 219 196 162 153 149 139 137 139 137 159 161 157 164 199 185 174 142 131 104 64 61 65 65 74 81 99 117 130 165 171 169
199 158 153 196 190 165 199 209 182 172 164 178 190 163 160 153 148 149 135 130 121 102 88 95 116 135 158 178 179 163 150 126 117 78 69 78 82 85 89 88 92 99 104 106